Regional Weather Roundup
Issued by NWS

Home | Current Version | Previous Version | Text Only | Print | Product List | Glossary On
Versions: 1 2 3 4 5 6 7 8 9 10 11 12 13 14 15 16 17 18 19 20 21 22 23 24 25 26 27 28 29 30 31 32 33 34 35 36 37 38 39 40 41 42 43 44 45 46 47 48 49 50
242
ASUS46 KPQR 221710
RWROR

OREGON REGIONAL WEATHER ROUNDUP
NATIONAL WEATHER SERVICE PORTLAND OR
900 AM PST SUN JAN 22 2017

NOTE: "FAIR" INDICATES FEW OR NO CLOUDS BELOW 12,000 FEET WITH
NO SIGNIFICANT WEATHER AND/OR OBSTRUCTIONS TO VISIBILITY.

ORZ001>013-221800-
NORTHWEST OREGON


CITY           SKY/WX    TMP DP  RH WIND       PRES   REMARKS
ASTORIA        MOCLDY    47  37  68 SE9       29.42R
NEWPORT        MOSUNNY   43  37  81 SE10G18   29.48R
PORTLAND       CLOUDY    41  37  86 E13       29.51R
VANCOUVER WA   CLOUDY    42  37  82 E7        29.51R
SCAPPOOSE      LGT RAIN  39  39 100 NW5       29.50R
HILLSBORO      CLOUDY    43  39  86 S8        29.49R
AURORA         CLOUDY    44  37  76 S15G21    29.51R
MCMINNVILLE    CLOUDY    43  39  86 E5        29.50R
SALEM          CLOUDY    43  37  79 S14       29.50R
CORVALLIS        N/A     41  36  81 SE12      29.51R
EUGENE         PTSUNNY   40  37  89 S9        29.53R WCI  34
$$

ORZ021-028-221800-
SOUTHWEST OREGON


CITY           SKY/WX    TMP DP  RH WIND       PRES   REMARKS
NORTH BEND     MOSUNNY   45  41  87 SE10      29.50R
BROOKINGS      CLOUDY    44  41  89 SE9G16    29.57R
ROSEBURG       MOSUNNY   40  39  97 S6        29.54S
SEXTON SUMMIT  SNOW      28  27  96 S14G30    29.48R VSB 1/4 WCI  17
MEDFORD        MOSUNNY   39  36  89 CALM      29.58R
$$

ORZ014>016-041-221800-
COLUMBIA GORGE


CITY           SKY/WX    TMP DP  RH WIND       PRES   REMARKS
TROUTDALE      CLOUDY    41  36  82 E13       29.52R
HOOD RIVER     RAIN      34  34 100 CALM      29.57R
THE DALLES     CLOUDY    34  33  96 CALM      29.55R FOG
$$

ORZ029>031-041-044-049-050-061>064-502-503-505>511-221800-
EASTERN OREGON


CITY           SKY/WX    TMP DP  RH WIND       PRES   REMARKS
REDMOND        LGT SNOW  35  29  78 S13       29.45R WCI  26
BEND           LGT SNOW  34  32  93 S13       29.45R WCI  25
PRINEVILLE     PTSUNNY   37  30  75 SE15G22   29.45R WCI  28
KLAMATH FALLS  CLOUDY    30  25  81 SW8       29.53R WCI  22
LAKEVIEW       CLOUDY    34  28  80 S21G28    29.49R WCI  22
HERMISTON      LGT RAIN  37  33  85 CALM      29.56R
PENDLETON      CLOUDY    43  29  57 E20       29.53S
JOHN DAY       LGT SNOW  34  31  88 CALM      29.54R
MEACHAM        CLOUDY    34  23  64 VRB7      29.48F WCI  28
LA GRANDE      CLOUDY    37  27  65 SE28G40   29.58S WCI  25
BAKER CITY     CLOUDY    32  26  78 E24G33    29.62F WCI  19
BURNS          SNOW      28  27  96 NE17      29.55R VSB 1/2 WCI  16
ROME             N/A     36  27  69 SE18      29.56S WCI  26
ONTARIO        CLOUDY    27  23  85 N3        29.72S
$$




USA.gov is the U.S. government's official web portal to all federal, state and local government web resources and services.